EW9504 Weather Reports


time (UTC)temp
C
wind
direction
speed
KPH
gust
KPH
rain 1hr
cm
rain 24hr
cm
rain mn
cm
humidity
%
barometer
mb
20260506103006 23 105 0.0 1.6 0.00 0.00 0.00 97 1007.2
20260506101506 23 242 0.0 0.0 0.00 0.00 0.00 97 1007.3
20260506100003 23 223 0.0 3.2 0.00 0.00 0.00 97 1007.1
20260506094505 23 195 0.0 1.6 0.00 0.00 0.00 97 1007.0
20260506093003 23 242 0.0 1.6 0.00 0.00 0.00 97 1007.1
20260506091502 23 232 0.0 0.0 0.00 0.00 0.00 96 1007.0
20260506084623 23 114 0.0 3.2 0.00 0.00 0.00 96 1007.2
20260506083058 23 212 0.0 3.2 0.00 0.00 0.00 96 1007.2
20260506081600 23 105 0.0 3.2 0.00 0.00 0.00 96 1007.3
20260506073053 24 82 0.0 3.2 0.00 0.00 0.00 95 1007.8
20260506071551 24 217 0.0 0.0 0.00 0.00 0.00 95 1007.9
20260506061550 24 142 0.0 6.4 0.00 0.00 0.00 95 1008.2
20260506044636 24 262 0.0 4.8 0.00 0.00 0.00 94 1008.2
20260506043042 24 162 0.0 3.2 0.00 0.00 0.00 93 1008.0
20260506041553 24 129 0.0 4.8 0.00 0.00 0.00 93 1008.0
20260506040041 25 117 0.0 3.2 0.00 0.00 0.00 93 1008.0
20260506034610 25 124 0.0 8.0 0.00 0.00 0.00 92 1007.8
20260506033040 25 208 0.0 6.4 0.00 0.00 0.00 91 1007.5
20260506031543 25 192 0.0 6.4 0.00 0.00 0.00 90 1007.4
20260506030040 25 179 0.0 3.2 0.00 0.00 0.00 90 1007.4
20260506024539 25 127 0.0 4.8 0.00 0.00 0.00 90 1007.3
20260506023100 25 161 0.0 3.2 0.00 0.00 0.00 90 1007.1
20260506021539 25 141 0.0 3.2 0.00 0.00 0.00 89 1006.8
20260506020042 25 297 0.0 8.0 0.00 0.00 0.00 89 1006.7
20260506014539 25 221 0.0 8.0 0.00 0.00 0.00 88 1006.4
20260506013040 26 167 0.0 8.0 0.00 0.00 0.00 87 1006.1
20260506011538 26 192 1.6 6.4 0.00 0.00 0.00 87 1005.9
20260506010043 26 232 0.0 6.4 0.00 0.00 0.00 85 1006.0
20260506004558 26 150 1.6 9.7 0.00 0.00 0.00 84 1005.7
20260506003045 26 240 0.0 8.0 0.00 0.00 0.00 83 1005.6
20260506001539 27 127 0.0 4.8 0.00 0.00 0.00 82 1005.5
20260506000035 27 238 0.0 9.7 0.00 0.00 0.00 81 1005.6
20260505234555 27 276 4.8 12.9 0.00 0.00 0.00 80 1005.4
20260505233039 27 140 3.2 12.9 0.00 0.00 0.00 81 1005.6
20260505231535 27 201 1.6 6.4 0.00 0.00 0.00 80 1005.4
20260505230040 27 93 3.2 11.3 0.00 0.00 0.00 80 1005.5
20260505224538 27 234 3.2 19.3 0.00 0.00 0.00 80 1005.5
20260505223034 28 149 3.2 12.9 0.00 0.00 0.00 79 1005.7
20260505221533 28 211 3.2 16.1 0.00 0.00 0.00 79 1005.6
20260505220043 28 250 3.2 17.7 0.00 0.00 0.00 79 1005.9
20260505214536 28 269 3.2 9.7 0.00 0.00 0.00 79 1005.9
20260505213028 28 239 3.2 17.7 0.00 0.00 0.00 79 1006.1
20260505211527 28 219 3.2 16.1 0.00 0.00 0.00 79 1006.3
20260505210025 28 178 3.2 12.9 0.00 0.00 0.00 79 1006.5
20260505204524 28 124 1.6 12.9 0.00 0.00 0.00 80 1006.8
20260505203021 28 217 0.0 11.3 0.00 0.00 0.00 80 1006.9
20260505201524 28 198 1.6 16.1 0.00 0.00 0.00 79 1007.1
20260505200021 29 220 3.2 12.9 0.00 0.00 0.00 78 1007.2
20260505194529 28 208 1.6 12.9 0.00 0.00 0.00 81 1007.3
20260505193033 28 162 1.6 11.3 0.00 0.00 0.00 79 1007.5
20260505191517 28 210 3.2 12.9 0.00 0.00 0.00 80 1007.6
20260505190015 28 185 3.2 14.5 0.00 0.00 0.00 80 1007.6
20260505184513 27 134 1.6 12.9 0.00 0.00 0.00 82 1007.8
20260505183014 27 248 1.6 12.9 0.00 0.00 0.00 82 1007.8
20260505181511 27 255 1.6 6.4 0.00 0.00 0.00 82 1008.0
20260505180010 27 179 3.2 11.3 0.00 0.00 0.00 81 1008.2
20260505174517 27 136 1.6 14.5 0.00 0.00 0.00 82 1008.3
20260505173006 27 215 1.6 8.0 0.00 0.00 0.00 84 1008.4
20260505171504 26 232 0.0 6.4 0.00 0.00 0.00 85 1008.4
20260505170006 26 230 1.6 11.3 0.00 0.00 0.00 86 1008.5
20260505164503 26 217 1.6 9.7 0.00 0.00 0.00 84 1008.5
20260505163003 26 241 3.2 14.5 0.00 0.00 0.00 84 1008.4
20260505161604 26 213 1.6 11.3 0.00 0.00 0.00 86 1008.3
20260505153059 25 257 0.0 11.3 0.00 0.00 0.00 88 1008.1
20260505151555 25 291 0.0 9.7 0.00 0.00 0.00 89 1008.1
20260505124538 22 227 0.0 6.4 0.00 0.00 0.00 96 1008.0
20260505123053 21 244 0.0 4.8 0.00 0.00 0.00 97 1007.8
20260505121534 21 269 0.0 1.6 0.00 0.00 0.00 97 1007.5
20260505120031 21 278 0.0 1.6 0.00 0.00 0.00 97 1007.1
20260505114529 21 95 0.0 0.0 0.00 0.00 0.00 97 1007.4
20260505113036 21 95 0.0 1.6 0.00 0.00 0.00 96 1007.4
20260505111549 21 95 0.0 1.6 0.00 0.00 0.00 96 1007.2